Weather History for Juneau, WI

Change the Weather History Date:

Friday, March 23, 2012

  Actual Average Record
Temperature  
Mean Temperature 60 °F -  
Max Temperature 64 °F 43 °F 64 °F (2012)
Min Temperature 55 °F 28 °F 2 °F (1974)
Degree Days  
Heating Degree Days 6    
Growing Degree Days 10 (Base 50)    
Moisture  
Dew Point 57 °F    
Average Humidity 96    
Maximum Humidity 100    
Minimum Humidity 77    
Precipitation  
Precipitation 0.37 in - - ()
Sea Level Pressure  
Sea Level Pressure 29.94 in    
Wind  
Wind Speed 6 mph (East)    
Max Wind Speed 17 mph    
Max Gust Speed 21 mph    
Visibility 6 miles    
Events Rain , Thunderstorm    
Averages and records for this station are not official NWS values.
T = Trace of Precipitation, MM = Missing Value Source: NWS Daily Summary

Daily Weather History Graph

Daily Weather History Graph

Search for Another Location

Airport:

Trip Planner

Search our weather history database for the weather conditions in past years. The results will help you decide how hot, cold, wet, or windy it might be!

Date:

Astronomy

Mar. 23, 2012 Rise Set
Actual Time 6:51 AM CDT 7:11 PM CDT
Civil Twilight 6:23 AM CDT 7:39 PM CDT
Nautical Twilight 5:49 AM CDT 8:13 PM CDT
Astronomical Twilight 5:15 AM CDT 8:48 PM CDT
Moon 6:56 AM CDT (3/23) 8:37 PM CDT (3/23)
Length of Visible Light 13h 16m
Length of Day
12h 19m
New Moon, 1% of the Moon is Illuminated
Mar 23
New Moon
Mar 30
First Quarter
Apr 6
Full
Apr 13
Last Quarter
Apr 21
New

Hourly Weather History & Observations

Time (CDT) Temp. Dew Point Humidity Pressure Visibility Wind Dir Wind Speed Gust Speed Precip Events Conditions
12:15 AM 60.8 °F 60.8 °F 100% 30.06 in 4.0 mi NE 6.9 mph - N/A   Light Drizzle
12:35 AM 60.8 °F 60.8 °F 100% 30.04 in 3.0 mi NE 3.5 mph - N/A   Drizzle
12:55 AM 60.8 °F 59.0 °F 94% 30.04 in 2.5 mi NE 5.8 mph - N/A   Overcast
1:15 AM 59.0 °F 59.0 °F 100% 30.03 in 2.5 mi ENE 6.9 mph - 0.01 in   Drizzle
1:35 AM 57.2 °F 57.2 °F 100% 30.02 in 2.0 mi NE 5.8 mph - 0.01 in   Mostly Cloudy
1:55 AM 57.2 °F 57.2 °F 100% 30.02 in 1.8 mi NE 5.8 mph - 0.01 in   Mostly Cloudy
2:15 AM 57.2 °F 57.2 °F 100% 30.02 in 2.0 mi NE 4.6 mph - N/A   Overcast
2:35 AM 57.2 °F 57.2 °F 100% 30.01 in 1.8 mi ENE 4.6 mph - N/A   Overcast
2:55 AM 59.0 °F 57.2 °F 94% 30.01 in 2.5 mi NE 5.8 mph - N/A   Mostly Cloudy
3:15 AM 59.0 °F 57.2 °F 94% 30.00 in 3.0 mi NE 3.5 mph - N/A   Scattered Clouds
3:35 AM 59.0 °F 57.2 °F 94% 30.00 in 2.5 mi NNE 3.5 mph - N/A   Light Drizzle
3:55 AM 59.0 °F 57.2 °F 94% 30.00 in 2.5 mi NE 3.5 mph - N/A   Overcast
4:15 AM 57.2 °F 57.2 °F 100% 29.99 in 2.5 mi ENE 5.8 mph - N/A   Overcast
4:35 AM 59.0 °F 57.2 °F 94% 30.00 in 4.0 mi ENE 6.9 mph - N/A Rain Rain
4:55 AM 59.0 °F 57.2 °F 94% 30.00 in 4.0 mi ENE 3.5 mph - N/A   Overcast
5:15 AM 59.0 °F 57.2 °F 94% 30.00 in 5.0 mi ENE 5.8 mph - N/A   Overcast
5:35 AM 59.0 °F 55.4 °F 88% 30.00 in 7.0 mi East 9.2 mph - N/A   Overcast
5:55 AM 59.0 °F 55.4 °F 88% 30.00 in 7.0 mi East 8.1 mph - N/A   Overcast
6:15 AM 57.2 °F 55.4 °F 94% 30.00 in 5.0 mi East 6.9 mph - N/A Thunderstorm Overcast
6:35 AM 57.2 °F 55.4 °F 94% 29.99 in 5.0 mi East 5.8 mph - N/A   Overcast
6:55 AM 57.2 °F 55.4 °F 94% 29.99 in 5.0 mi East 8.1 mph - N/A   Overcast
7:15 AM 55.4 °F 55.4 °F 100% 30.00 in 4.0 mi East 8.1 mph - 0.01 in Rain Rain
7:35 AM 55.4 °F 55.4 °F 100% 30.00 in 3.0 mi East 10.4 mph - 0.03 in Rain Light Rain
7:55 AM 55.4 °F 55.4 °F 100% 30.00 in 3.0 mi East 9.2 mph - 0.03 in   Light Drizzle
8:35 AM 55.4 °F 53.6 °F 94% 30.00 in 2.5 mi ENE 6.9 mph - 0.12 in Rain Light Rain
8:55 AM 55.4 °F 55.4 °F 100% 29.99 in 2.5 mi East 6.9 mph - 0.12 in   Overcast
9:15 AM 55.4 °F 55.4 °F 100% 29.99 in 3.0 mi East 5.8 mph - N/A   Overcast
9:55 AM 59.0 °F 57.2 °F 94% 29.97 in 4.0 mi ENE 9.2 mph - N/A   Scattered Clouds
10:35 AM 62.6 °F 59.0 °F 88% 29.97 in 7.0 mi East 8.1 mph - N/A   Mostly Cloudy
10:55 AM 62.6 °F 59.0 °F 88% 29.96 in 7.0 mi ENE 6.9 mph - N/A   Mostly Cloudy
11:15 AM 64.4 °F 59.0 °F 83% 29.96 in 10.0 mi ESE 8.1 mph - N/A   Mostly Cloudy
11:35 AM 62.6 °F 57.2 °F 82% 29.95 in 10.0 mi ESE 10.4 mph - N/A   Overcast
11:55 AM 62.6 °F 55.4 °F 77% 29.96 in 10.0 mi East 12.7 mph - N/A   Overcast
12:35 PM 59.0 °F 59.0 °F 100% 29.94 in 2.5 mi East 9.2 mph - 0.06 in Rain Rain
12:55 PM 59.0 °F 59.0 °F 100% 29.93 in 3.0 mi East 11.5 mph - 0.13 in Rain Light Rain
1:15 PM 59.0 °F 59.0 °F 100% 29.93 in 10.0 mi East 9.2 mph - N/A Rain Light Rain
1:35 PM 60.8 °F 59.0 °F 94% 29.92 in 10.0 mi East 8.1 mph - 0.01 in   Light Drizzle
1:55 PM 60.8 °F 59.0 °F 94% 29.90 in 10.0 mi East 9.2 mph - 0.01 in   Overcast
2:15 PM 59.0 °F 59.0 °F 100% 29.90 in 10.0 mi East 10.4 mph - N/A   Overcast
2:35 PM 59.0 °F 59.0 °F 100% 29.90 in 10.0 mi ESE 9.2 mph - N/A   Overcast
2:55 PM 59.0 °F 57.2 °F 94% 29.89 in 10.0 mi ESE 8.1 mph - N/A   Light Drizzle
3:15 PM 59.0 °F 59.0 °F 100% 29.90 in 7.0 mi ESE 9.2 mph - N/A Rain Light Rain
3:35 PM 59.0 °F 59.0 °F 100% 29.89 in 5.0 mi ESE 6.9 mph - 0.02 in Rain Light Rain
3:55 PM 59.0 °F 57.2 °F 94% 29.87 in 7.0 mi East 8.1 mph - 0.03 in Rain Light Rain
4:15 PM 57.2 °F 57.2 °F 100% 29.87 in 7.0 mi East 5.8 mph - N/A   Light Drizzle
4:35 PM 57.2 °F 57.2 °F 100% 29.88 in 7.0 mi SE 4.6 mph - 0.01 in Rain Light Rain
4:55 PM 59.0 °F 57.2 °F 94% 29.87 in 7.0 mi SSE 3.5 mph - 0.02 in Rain Light Rain
5:15 PM 59.0 °F 57.2 °F 94% 29.87 in 7.0 mi ESE 4.6 mph - N/A   Drizzle
5:35 PM 59.0 °F 57.2 °F 94% 29.86 in 7.0 mi Calm Calm - N/A Rain Light Rain
5:55 PM 57.2 °F 57.2 °F 100% 29.85 in 7.0 mi NNE 8.1 mph - 0.01 in Rain Light Rain
6:15 PM 57.2 °F 57.2 °F 100% 29.80 in 7.0 mi North 17.3 mph 20.7 mph N/A Rain Light Rain
6:55 PM 57.2 °F 55.4 °F 94% 29.84 in 10.0 mi NE 8.1 mph - N/A Rain Rain
7:15 PM 57.2 °F 55.4 °F 94% 29.86 in 10.0 mi ENE 4.6 mph - N/A   Overcast
7:35 PM 57.2 °F 55.4 °F 94% 29.86 in 10.0 mi Calm Calm - N/A   Overcast
7:55 PM 55.4 °F 55.4 °F 100% 29.87 in 10.0 mi SE 4.6 mph - 0.01 in   Overcast
8:15 PM 57.2 °F 55.4 °F 94% 29.88 in 10.0 mi South 4.6 mph - N/A   Overcast
8:35 PM 55.4 °F 55.4 °F 100% 29.87 in 10.0 mi Calm Calm - N/A   Overcast
8:55 PM 55.4 °F 55.4 °F 100% 29.87 in 10.0 mi ESE 3.5 mph - N/A   Mostly Cloudy
9:15 PM 55.4 °F 55.4 °F 100% 29.87 in 7.0 mi Calm Calm - N/A   Overcast
9:35 PM 55.4 °F 55.4 °F 100% 29.87 in 7.0 mi ENE 3.5 mph - N/A Rain Rain
9:55 PM 55.4 °F 55.4 °F 100% 29.86 in 7.0 mi Calm Calm - N/A Rain Light Rain
10:15 PM 55.4 °F 55.4 °F 100% 29.86 in 7.0 mi Calm Calm - N/A Rain Light Rain
10:35 PM 55.4 °F 55.4 °F 100% 29.85 in 5.0 mi Calm Calm - N/A Rain Light Rain
10:55 PM 55.4 °F 55.4 °F 100% 29.84 in 5.0 mi NE 3.5 mph - N/A Rain Light Rain
11:15 PM 55.4 °F 53.6 °F 94% 29.84 in 4.0 mi NE 4.6 mph - N/A   Scattered Clouds
11:35 PM 53.6 °F 53.6 °F 100% 29.84 in 4.0 mi North 3.5 mph - N/A   Clear
11:55 PM 53.6 °F 53.6 °F 100% 29.84 in 2.0 mi NNE 3.5 mph - 0.01 in   Mostly Cloudy